Probability
0 0 0 0 0 0 0 0 0 0 0 0 0 0 0 0 0 0 0 0 0 0 0 0 0 10 13 19 26 32 32 39 42 29 26 19 16 3 0 0 0 0 0
0 0 0 0 0 0 0 0 0 0 0 0 0 0 0 0 0 0 0 0 0 0 0 0 0 0 3 13 26 16 32 45 42 42 39 35 19 6 3 0 0 0 0
0 0 0 0 0 0 0 0 0 0 0 0 0 0 0 0 0 0 0 0 0 0 0 0 0 0 0 3 10 13 16 3 39 42 42 39 16 3 0 0 0 0 0
0 0 0 0 0 0 0 0 0 0 0 0 0 0 0 0 0 0 0 0 0 0 0 0 0 0 0 0 0 3 13 10 16 35 45 35 16 6 0 0 0 0 0
0 0 0 0 0 0 0 0 0 0 0 0 0 0 0 0 0 0 0 0 0 0 0 0 0 0 0 0 0 0 0 3 6 16 23 26 19 6 6 3 0 0 3
0 0 0 0 0 0 0 0 0 0 0 0 0 0 0 0 0 0 0 0 0 0 0 0 0 0 0 0 0 0 0 0 6 10 13 6 16 10 10 0 3 3 0
0 0 0 0 0 0 0 0 0 0 0 0 0 0 0 0 0 0 0 0 0 0 0 0 0 0 0 0 0 0 0 0 0 3 10 10 13 13 10 3 0 0 0
0 0 0 0 0 0 0 0 0 0 0 0 0 0 0 0 0 0 0 0 0 0 0 0 0 0 0 0 0 0 0 0 0 0 6 13 16 26 16 3 6 3 0
0 0 0 0 0 0 0 0 0 0 0 0 0 0 3 0 0 0 0 0 0 0 0 0 0 0 0 0 0 0 0 0 0 0 0 0 0 0 0 3 3 3 0
0 0 0 0 0 0 0 0 0 0 0 0 0 0 0 3 0 0 0 0 0 0 0 0 0 0 0 0 0 0 0 0 0 0 0 0 0 0 0 0 0 3 0
0 0 0 0 0 0 0 0 0 0 0 0 0 0 0 0 0 0 0 0 0 0 0 0 0 0 0 0 0 0 0 0 0 0 0 0 0 0 0 0 3 3 0
0 0 0 0 0 0 0 0 0 0 0 0 0 0 3 0 0 0 0 0 0 0 0 0 0 0 0 0 0 0 0 0 0 0 0 0 0 0 0 0 0 0 3
0 0 0 0 0 0 0 0 0 0 0 0 0 0 0 0 0 0 0 0 0 0 0 0 0 0 0 0 0 0 0 0 0 0 0 0 0 0 0 0 0 0 0
0 0 0 0 0 0 0 0 0 0 0 0 0 0 0 0 0 0 0 0 0 0 0 0 0 0 0 0 0 0 0 0 0 0 0 0 0 0 0 0 0 0 0
0 0 0 0 0 0 0 0 0 0 0 0 0 0 0 0 0 0 0 0 0 0 0 3 0 0 0 0 0 0 0 0 0 0 0 0 0 0 0 0 0 0 0
0 0 0 0 0 0 0 0 0 0 0 0 0 0 0 0 0 0 0 0 0 0 0 0 0 0 0 0 0 0 0 0 3 0 0 0 0 0 0 0 0 0 0
0 0 0 0 0 0 0 0 0 0 0 0 0 0 0 0 0 0 0 0 0 0 0 0 0 0 0 0 0 3 3 0 3 0 0 0 0 0 0 0 0 0 0
0 0 0 0 0 0 0 0 0 0 0 0 0 0 0 0 0 0 0 0 0 0 0 0 0 0 0 0 0 0 0 0 0 0 0 0 0 0 0 0 0 0 0
0 0 0 0 0 0 0 0 0 0 0 0 0 0 0 0 0 0 0 0 0 0 0 0 0 0 0 0 0 0 0 0 0 0 0 0 0 0 0 0 0 0 0
0 0 0 0 0 0 0 0 0 0 0 0 0 0 0 0 0 0 0 0 0 0 0 0 0 3 0 0 0 0 0 0 0 0 0 0 0 0 0 0 0 0 0
0 0 0 0 0 0 0 0 0 0 0 0 0 0 0 0 0 0 0 0 0 0 0 0 0 0 0 0 0 0 0 0 0 0 0 0 0 0 0 0 0 0 0
0 0 0 0 0 0 0 0 0 0 0 0 0 0 0 0 0 0 0 0 0 0 0 0 0 0 0 0 0 0 0 0 0 0 0 0 0 0 0 0 0 0 0
0 0 0 0 0 0 0 0 0 0 0 0 0 0 0 0 0 0 0 0 0 0 0 0 0 0 0 0 0 0 0 0 0 0 0 0 0 0 0 0 0 0 0
0 0 0 0 0 0 0 0 0 0 0 0 0 0 0 0 0 0 0 0 0 0 0 0 0 0 0 0 0 0 0 0 0 0 0 0 0 0 0 0 0 0 0
0 0 0 0 0 0 0 0 0 0 0 0 0 0 0 0 0 0 0 0 0 0 0 0 0 0 0 0 0 0 0 0 0 0 0 0 0 0 0 0 0 0 0
0 0 0 0 0 0 0 0 0 0 0 0 0 0 0 0 0 0 0 0 0 0 0 0 0 0 0 0 0 0 0 0 0 0 0 0 0 0 0 0 0 0 0
Height
5723 5718 5713 5708 5703 5698 5694 5690 5688 5685 5683 5682 5681 5681 5682 5684 5686 5690 5694 5698 5703 5708 5714 5720 5726 5732 5738 5744 5749 5755 5761 5767 5772 5776 5781 5785 5790 5793 5797 5799 5802 5804 5805
5709 5703 5698 5692 5687 5682 5677 5673 5669 5666 5663 5661 5661 5661 5661 5663 5665 5669 5673 5677 5683 5688 5694 5701 5708 5714 5721 5728 5734 5741 5748 5754 5760 5765 5770 5775 5780 5784 5788 5791 5794 5796 5798
5695 5689 5682 5675 5669 5663 5657 5652 5648 5644 5642 5640 5639 5639 5640 5641 5644 5647 5651 5656 5661 5667 5673 5680 5688 5695 5703 5711 5718 5726 5734 5741 5747 5753 5758 5764 5770 5775 5779 5783 5786 5788 5790
5681 5673 5665 5657 5649 5642 5636 5630 5625 5622 5619 5618 5617 5617 5618 5620 5623 5626 5630 5635 5640 5646 5653 5659 5667 5676 5684 5692 5701 5709 5718 5726 5734 5740 5746 5752 5758 5765 5770 5774 5778 5780 5783
5666 5657 5648 5638 5629 5621 5613 5607 5602 5598 5596 5595 5595 5596 5598 5600 5603 5607 5611 5616 5621 5627 5633 5640 5647 5655 5664 5673 5683 5693 5701 5711 5719 5727 5734 5741 5747 5754 5761 5765 5769 5772 5775
5651 5641 5630 5620 5610 5600 5592 5585 5581 5577 5575 5574 5575 5576 5578 5581 5585 5590 5595 5600 5605 5611 5616 5622 5629 5636 5644 5654 5664 5675 5685 5695 5705 5713 5722 5729 5737 5744 5750 5755 5760 5764 5768
5636 5624 5613 5602 5591 5581 5573 5566 5561 5557 5555 5555 5556 5557 5560 5564 5569 5574 5580 5585 5591 5597 5602 5608 5613 5619 5627 5635 5645 5657 5668 5679 5690 5700 5709 5718 5726 5733 5739 5745 5750 5755 5759
5621 5609 5597 5585 5574 5564 5555 5548 5543 5540 5538 5538 5539 5541 5544 5549 5554 5559 5566 5572 5579 5584 5590 5595 5600 5605 5612 5619 5628 5638 5650 5663 5676 5687 5697 5707 5714 5721 5728 5735 5741 5746 5751
5608 5595 5583 5571 5559 5549 5540 5533 5527 5524 5522 5522 5523 5526 5530 5535 5540 5547 5553 5561 5568 5574 5579 5584 5589 5594 5599 5606 5614 5624 5636 5647 5659 5672 5683 5693 5702 5710 5718 5725 5732 5738 5742
5596 5583 5571 5559 5548 5537 5528 5521 5515 5511 5510 5509 5511 5514 5518 5523 5529 5535 5543 5551 5559 5565 5570 5575 5580 5585 5589 5594 5601 5610 5620 5632 5645 5657 5670 5681 5690 5700 5708 5716 5723 5729 5734
5586 5573 5561 5549 5538 5529 5520 5512 5506 5502 5499 5500 5501 5504 5508 5513 5519 5526 5534 5542 5549 5555 5561 5566 5571 5576 5580 5585 5591 5599 5608 5618 5630 5644 5657 5669 5679 5690 5699 5708 5715 5721 5727
5579 5566 5554 5542 5532 5523 5514 5507 5501 5496 5494 5493 5494 5497 5501 5506 5512 5518 5526 5534 5541 5548 5553 5558 5563 5568 5572 5577 5583 5589 5597 5607 5619 5632 5646 5658 5670 5681 5691 5699 5706 5713 5719
5573 5561 5549 5538 5528 5519 5511 5504 5498 5494 5491 5490 5490 5492 5496 5501 5506 5512 5520 5527 5534 5540 5546 5551 5555 5560 5564 5569 5575 5580 5588 5599 5611 5624 5637 5649 5661 5672 5681 5690 5697 5704 5710
5569 5557 5546 5536 5526 5517 5509 5502 5496 5492 5489 5488 5488 5490 5493 5497 5502 5508 5514 5521 5527 5533 5539 5544 5548 5553 5558 5563 5568 5573 5582 5591 5603 5615 5628 5640 5652 5663 5672 5681 5690 5697 5704
5566 5555 5544 5534 5525 5516 5509 5502 5496 5492 5489 5488 5488 5489 5492 5496 5500 5505 5510 5516 5522 5527 5532 5537 5542 5546 5551 5556 5561 5568 5575 5585 5596 5607 5620 5632 5644 5655 5665 5674 5683 5690 5697
5565 5554 5544 5534 5526 5517 5510 5504 5498 5494 5491 5489 5488 5489 5491 5494 5498 5503 5507 5511 5516 5521 5525 5530 5535 5540 5545 5550 5556 5562 5570 5580 5591 5601 5613 5625 5637 5648 5658 5667 5676 5683 5690
5564 5554 5544 5535 5527 5519 5512 5506 5501 5497 5493 5491 5490 5491 5492 5495 5498 5501 5504 5508 5512 5516 5520 5525 5530 5534 5540 5545 5551 5558 5566 5576 5586 5597 5608 5620 5632 5642 5652 5661 5670 5677 5684
5564 5554 5546 5537 5529 5522 5515 5510 5505 5501 5497 5495 5494 5493 5494 5496 5498 5500 5503 5506 5509 5513 5517 5521 5525 5530 5535 5541 5548 5555 5564 5573 5583 5593 5604 5616 5627 5637 5647 5656 5664 5672 5679
5565 5556 5548 5540 5533 5526 5519 5514 5509 5505 5501 5499 5497 5496 5496 5497 5499 5500 5502 5505 5508 5511 5514 5518 5522 5527 5532 5538 5545 5553 5561 5571 5580 5590 5601 5612 5623 5633 5643 5652 5660 5667 5674
5566 5558 5550 5543 5536 5530 5524 5519 5514 5510 5506 5503 5501 5500 5499 5500 5500 5501 5502 5504 5507 5509 5511 5514 5518 5523 5529 5535 5542 5551 5559 5569 5578 5589 5599 5610 5620 5630 5640 5648 5656 5663 5670
5569 5561 5554 5547 5540 5534 5529 5524 5519 5515 5512 5509 5506 5504 5504 5503 5503 5503 5504 5505 5507 5508 5511 5513 5517 5521 5527 5534 5542 5550 5559 5568 5577 5587 5598 5608 5618 5628 5637 5645 5653 5660 5667
5571 5564 5557 5550 5544 5539 5534 5529 5525 5521 5517 5514 5511 5509 5508 5507 5506 5506 5507 5507 5509 5510 5512 5514 5518 5522 5528 5535 5543 5552 5560 5570 5579 5589 5599 5608 5617 5626 5635 5643 5650 5657 5663
5574 5567 5560 5554 5549 5544 5539 5535 5531 5527 5523 5520 5517 5515 5513 5511 5511 5510 5511 5511 5512 5514 5516 5519 5522 5526 5532 5539 5547 5556 5564 5573 5582 5591 5600 5609 5618 5626 5633 5641 5648 5654 5660
5577 5570 5564 5559 5554 5549 5545 5541 5537 5533 5530 5527 5524 5521 5519 5518 5517 5516 5516 5517 5518 5520 5523 5526 5529 5533 5539 5546 5553 5561 5569 5577 5586 5594 5603 5611 5619 5626 5633 5640 5646 5652 5657
5580 5574 5569 5564 5559 5555 5551 5547 5544 5541 5537 5534 5532 5530 5528 5526 5525 5524 5524 5525 5527 5529 5532 5535 5538 5542 5548 5554 5561 5568 5575 5583 5590 5598 5605 5612 5619 5626 5633 5639 5644 5650 5654
5583 5578 5573 5569 5565 5561 5557 5554 5551 5548 5545 5542 5540 5538 5537 5536 5534 5534 5534 5535 5537 5539 5541 5544 5548 5552 5557 5563 5568 5575 5581 5588 5595 5602 5608 5614 5621 5627 5632 5638 5643 5648 5652
Wind_Speed
43 44 44 45 46 46 47 48 49 50 51 52 54 55 57 59 61 63 64 66 67 66 66 64 62 60 58 56 54 53 50 48 47 44 42 39 37 34 32 29 27 26 25
45 45 45 47 49 50 51 51 52 52 54 55 55 56 57 58 61 63 66 67 69 70 71 70 68 65 63 61 59 56 54 51 50 48 46 43 40 37 34 31 29 27 26
46 47 49 51 53 54 54 54 54 55 55 55 56 56 57 58 59 62 65 67 69 70 72 74 73 72 69 65 62 61 59 55 53 51 50 47 43 40 37 34 31 29 27
48 50 53 55 56 57 57 57 56 55 54 54 54 54 55 56 56 58 61 63 66 68 70 72 74 76 75 72 69 65 62 60 56 54 52 50 46 42 39 36 34 31 29
51 53 55 56 58 58 58 56 54 54 52 51 52 52 53 53 54 54 55 57 59 62 65 67 70 73 76 76 74 71 67 64 61 58 54 52 49 45 42 39 36 33 30
53 55 56 57 58 57 55 53 51 50 49 48 48 48 49 50 51 51 51 51 52 55 57 60 63 67 71 74 75 74 71 68 64 61 58 54 51 47 44 41 38 35 32
55 56 57 57 56 54 52 49 46 44 44 44 44 45 46 47 48 47 47 47 46 47 49 52 55 59 63 69 73 74 73 70 66 63 61 56 52 49 45 42 39 37 33
55 55 55 55 53 50 47 44 42 41 40 40 41 41 43 44 45 45 45 44 41 40 42 44 47 50 54 59 66 70 71 71 70 66 60 56 53 50 48 44 40 37 34
54 54 53 52 49 46 42 39 37 36 36 35 36 37 39 40 42 43 43 41 39 38 37 38 40 41 45 50 55 61 66 69 68 66 63 57 52 49 46 44 41 37 34
53 52 50 48 45 41 38 35 32 31 30 30 30 31 33 36 38 40 40 39 38 36 35 35 35 36 38 42 45 50 56 61 64 64 61 57 53 49 46 43 41 38 35
51 49 47 44 41 37 33 30 27 25 23 23 24 26 29 32 35 36 38 38 36 35 34 33 32 33 34 37 39 43 48 54 59 60 59 56 53 50 46 43 41 38 35
48 46 44 40 37 34 31 27 23 19 17 18 19 22 25 29 32 34 36 36 34 33 32 32 32 32 32 34 36 40 45 50 54 56 57 55 52 50 48 45 42 38 35
46 44 41 38 34 32 29 25 20 16 13 12 13 17 21 25 28 31 33 33 33 31 31 32 31 31 31 31 33 38 43 47 50 53 55 54 51 49 48 45 42 39 36
45 43 39 36 33 30 27 23 19 15 11 8 8 12 16 20 23 26 29 31 31 30 30 30 30 30 30 30 30 34 41 45 48 50 52 52 50 48 47 45 42 39 37
43 41 38 34 32 29 26 22 18 14 9 5 5 9 13 16 20 23 26 28 29 29 29 29 29 28 28 29 30 33 39 44 46 48 51 51 49 47 46 44 42 39 36
41 39 36 33 31 28 24 21 18 14 9 5 1 6 11 14 18 21 22 24 25 26 27 27 27 27 27 28 30 34 38 42 45 47 49 50 49 46 45 43 41 39 36
39 37 34 32 30 28 24 21 18 14 11 6 2 4 7 11 15 17 18 20 22 24 24 25 26 26 27 28 30 34 38 42 44 46 48 48 47 45 44 42 40 38 36
37 35 32 31 29 27 24 21 18 15 11 8 5 3 5 8 10 13 15 17 19 21 22 23 24 26 27 28 30 33 37 41 43 45 47 47 46 44 41 40 38 37 35
35 33 31 29 28 27 24 21 19 16 12 10 7 5 4 5 6 9 12 14 15 17 19 21 23 25 27 29 30 34 39 40 41 43 45 45 44 43 40 39 37 36 33
33 31 29 28 27 25 23 21 19 17 15 12 10 8 6 6 5 6 8 10 12 14 16 19 22 25 26 28 32 36 39 40 42 45 45 45 43 41 39 37 35 33 31
30 29 28 26 25 23 22 21 19 18 16 14 13 10 9 7 6 7 7 9 10 12 14 16 19 22 24 28 33 35 38 40 41 43 44 44 41 39 37 36 34 33 31
28 27 26 24 23 22 20 20 19 18 17 15 14 12 10 9 8 8 8 9 10 13 15 16 18 21 26 30 34 36 38 40 42 42 43 42 40 38 35 33 32 31 29
27 25 24 23 22 21 19 18 18 18 17 17 16 14 13 12 11 11 12 13 13 15 16 17 19 23 28 31 34 36 37 38 38 38 38 36 35 34 32 32 30 30 29
25 24 22 21 20 20 19 18 19 19 19 19 18 18 17 16 15 14 15 16 17 18 19 21 23 25 28 30 32 34 35 36 37 38 37 35 33 32 31 30 28 28 27
22 22 21 20 19 18 18 18 18 19 20 20 21 21 20 19 19 18 19 20 20 21 21 23 25 27 29 30 30 32 33 35 33 34 34 32 31 30 29 28 27 26 24
19 19 19 19 19 18 18 18 17 18 19 20 20 20 21 21 21 22 22 22 22 23 23 25 26 27 27 29 29 30 31 31 30 30 29 28 27 27 26 25 24 23 22
Wind_Direction
302 300 298 296 293 290 287 284 280 276 272 269 266 262 258 255 251 248 246 244 242 241 240 239 238 235 236 236 236 236 235 235 236 236 236 236 236 238 240 244 247 252 258
304 302 300 298 296 293 290 286 283 278 275 271 267 264 260 256 252 249 246 244 243 241 240 239 238 237 236 235 235 235 234 234 235 235 235 235 235 236 238 241 245 250 256
305 304 302 301 298 295 292 288 284 280 276 272 268 264 261 258 254 250 247 245 243 241 240 239 238 237 235 235 234 234 233 233 233 235 235 235 235 235 237 240 243 248 253
308 306 305 303 301 298 294 290 285 281 276 272 268 263 260 257 254 251 248 245 243 242 240 239 238 237 236 235 233 233 232 232 232 233 233 234 234 234 236 238 241 245 250
311 309 308 306 303 300 296 292 286 282 277 272 267 262 258 254 250 248 246 244 243 242 241 240 239 237 236 234 234 234 233 232 231 231 231 232 233 233 235 237 239 243 247
314 313 311 309 306 303 298 293 287 281 276 271 266 260 255 251 246 244 243 242 242 241 241 241 241 239 237 235 233 233 232 232 231 230 230 231 232 233 233 234 236 239 243
318 316 314 312 310 306 300 295 288 282 275 269 263 258 253 249 245 241 239 239 238 238 238 240 241 240 239 237 235 233 231 231 230 230 230 231 232 231 231 232 234 236 240
321 320 318 316 313 310 304 298 291 282 276 269 260 254 250 246 242 238 236 234 233 233 235 237 239 241 239 238 236 234 232 231 230 230 230 229 230 230 230 231 232 234 237
326 324 323 321 318 314 309 302 294 285 276 269 259 253 247 242 237 234 232 230 229 231 233 235 237 239 239 238 236 234 232 230 229 230 231 229 228 228 227 228 230 233 235
330 329 328 326 323 320 316 310 301 290 278 267 257 249 242 236 233 230 227 226 227 229 231 234 236 237 236 235 234 231 229 227 226 227 228 228 226 227 226 226 227 230 233
334 334 333 331 330 328 325 319 311 298 282 269 257 246 238 233 228 226 224 224 224 226 229 231 233 235 234 233 230 228 224 221 220 220 221 223 224 224 224 225 225 227 230
339 339 338 337 336 336 334 329 323 312 293 273 255 241 233 228 224 223 222 221 222 224 227 230 232 232 233 232 228 223 219 216 215 215 215 217 219 220 221 223 225 226 228
343 344 343 343 342 341 339 336 331 323 308 285 255 233 226 223 221 221 219 220 221 223 225 228 230 231 232 230 226 221 215 212 210 210 210 212 214 215 217 219 222 224 226
347 347 348 347 347 346 345 344 341 335 323 298 252 227 218 214 214 216 217 218 219 221 225 227 228 229 229 227 224 218 211 207 205 206 207 207 209 211 212 214 217 220 223
350 351 353 353 353 353 352 352 350 347 341 317 244 217 211 211 212 212 214 217 219 221 223 224 225 226 226 223 220 213 207 202 201 202 203 204 205 207 209 211 214 217 220
352 354 356 357 359 360 1 2 3 3 2 358 247 207 205 206 207 208 213 216 217 218 219 221 221 221 220 217 213 207 202 199 198 198 199 200 202 204 206 208 211 213 216
355 357 359 2 4 7 10 12 14 17 21 31 76 171 190 199 202 205 210 212 212 213 215 217 217 217 214 210 206 200 196 196 196 196 196 197 199 202 204 206 208 211 213
358 1 3 5 8 11 14 17 20 24 31 40 57 116 166 182 194 200 204 206 207 209 212 213 212 210 207 202 199 195 193 193 193 194 193 194 197 199 201 203 206 209 210
1 4 7 9 12 14 18 22 27 33 37 42 51 75 121 154 175 187 191 196 199 202 206 209 207 205 202 199 196 193 191 190 190 191 191 191 193 196 198 202 205 206 208
3 7 10 13 15 19 22 26 31 36 42 48 57 74 96 118 139 159 175 187 193 197 199 200 200 198 197 196 191 187 188 189 187 187 188 187 190 193 197 200 202 204 206
5 9 12 16 19 21 25 29 35 39 44 50 58 70 83 92 105 127 147 168 180 185 183 182 185 188 187 184 182 183 185 186 185 185 184 184 186 191 195 197 199 201 204
8 11 15 20 23 25 29 34 40 45 49 52 58 65 75 85 98 114 126 143 154 157 160 162 168 171 171 174 176 178 178 180 180 179 180 182 186 189 192 195 198 201 204
11 15 19 24 27 30 34 38 42 45 49 53 57 64 73 82 93 105 115 124 132 138 142 144 147 154 160 163 167 170 171 172 173 174 176 179 184 188 191 194 197 200 204
14 19 24 29 33 36 41 45 49 53 57 60 65 70 74 80 89 97 102 111 119 126 129 134 139 144 149 154 158 161 163 166 169 173 176 181 184 188 191 193 197 201 203
16 22 28 34 37 42 46 51 55 59 63 66 70 72 76 80 86 95 102 107 111 117 123 125 129 136 143 149 153 158 163 165 166 170 174 178 182 186 190 194 197 201 204
18 23 30 37 42 48 52 57 62 65 69 72 75 77 81 84 86 93 103 108 111 115 120 121 124 131 138 143 148 155 161 163 165 168 173 177 181 184 188 191 194 196 200